Time,TemperatureF,DewpointF,PressureIn,WindDirection,WindDirectionDegrees,WindSpeedMPH,WindSpeedGustMPH,Humidity,HourlyPrecipIn,Conditions,Clouds,dailyrainin,SoftwareType,DateUTC
2013-01-26 00:03:00,18.0,-99.9,-100.00,NW,310,7.0,11.0,-999,0.00,,,0.00,,2013-01-26 06:03:00,
2013-01-26 00:12:00,18.0,-99.9,-100.00,NW,310,7.0,11.0,-999,0.00,,,0.00,,2013-01-26 06:12:00,
2013-01-26 00:22:00,18.0,-99.9,-100.00,NW,310,7.0,11.0,-999,0.00,,,0.00,,2013-01-26 06:22:00,
2013-01-26 00:32:00,17.0,-99.9,-100.00,NW,311,6.0,8.0,-999,0.00,,,0.00,,2013-01-26 06:32:00,
2013-01-26 00:42:00,17.0,-99.9,-100.00,NW,311,6.0,8.0,-999,0.00,,,0.00,,2013-01-26 06:42:00,
2013-01-26 00:52:00,17.0,-99.9,-100.00,NW,311,6.0,8.0,-999,0.00,,,0.00,,2013-01-26 06:52:00,
2013-01-26 01:02:00,16.0,-99.9,-100.00,NW,310,7.0,11.0,-999,0.00,,,0.00,,2013-01-26 07:02:00,
2013-01-26 01:12:00,16.0,-99.9,-100.00,NW,310,7.0,11.0,-999,0.00,,,0.00,,2013-01-26 07:12:00,
2013-01-26 01:22:00,16.0,-99.9,-100.00,NW,310,7.0,11.0,-999,0.00,,,0.00,,2013-01-26 07:22:00,
2013-01-26 01:33:00,15.0,-99.9,-100.00,NW,307,5.0,8.0,-999,0.00,,,0.00,,2013-01-26 07:33:00,
2013-01-26 01:42:00,15.0,-99.9,-100.00,NW,307,5.0,8.0,-999,0.00,,,0.00,,2013-01-26 07:42:00,
2013-01-26 01:52:00,15.0,-99.9,-100.00,NW,307,5.0,8.0,-999,0.00,,,0.00,,2013-01-26 07:52:00,
2013-01-26 02:02:00,14.0,-99.9,-100.00,NW,310,5.0,7.0,-999,0.00,,,0.00,,2013-01-26 08:02:00,
2013-01-26 02:11:00,14.0,-99.9,-100.00,NW,310,5.0,7.0,-999,0.00,,,0.00,,2013-01-26 08:11:00,
2013-01-26 02:22:00,14.0,-99.9,-100.00,NW,310,5.0,7.0,-999,0.00,,,0.00,,2013-01-26 08:22:00,
2013-01-26 02:32:00,14.0,-99.9,-100.00,WNW,286,4.0,7.0,-999,0.00,,,0.00,,2013-01-26 08:32:00,
2013-01-26 02:42:00,14.0,-99.9,-100.00,WNW,286,4.0,7.0,-999,0.00,,,0.00,,2013-01-26 08:42:00,
2013-01-26 02:54:00,14.0,-99.9,-100.00,WNW,286,4.0,7.0,-999,0.00,,,0.00,,2013-01-26 08:54:00,
2013-01-26 03:02:00,13.0,-99.9,-100.00,NW,310,5.0,7.0,-999,0.00,,,0.00,,2013-01-26 09:02:00,
2013-01-26 03:11:00,13.0,-99.9,-100.00,NW,310,5.0,7.0,-999,0.00,,,0.00,,2013-01-26 09:11:00,
2013-01-26 03:22:00,13.0,-99.9,-100.00,NW,310,5.0,7.0,-999,0.00,,,0.00,,2013-01-26 09:22:00,
2013-01-26 03:32:00,13.0,-99.9,-100.00,NNW,329,6.0,8.0,-999,0.00,,,0.00,,2013-01-26 09:32:00,
2013-01-26 03:42:00,13.0,-99.9,-100.00,NNW,329,6.0,8.0,-999,0.00,,,0.00,,2013-01-26 09:42:00,
2013-01-26 03:52:00,13.0,-99.9,-100.00,NNW,329,6.0,8.0,-999,0.00,,,0.00,,2013-01-26 09:52:00,
2013-01-26 04:02:00,12.0,-99.9,-100.00,NW,313,3.0,7.0,-999,0.00,,,0.00,,2013-01-26 10:02:00,
2013-01-26 04:12:00,12.0,-99.9,-100.00,NW,313,3.0,7.0,-999,0.00,,,0.00,,2013-01-26 10:12:00,
2013-01-26 04:22:00,12.0,-99.9,-100.00,NW,313,3.0,7.0,-999,0.00,,,0.00,,2013-01-26 10:22:00,
2013-01-26 04:32:00,12.0,-99.9,-100.00,NW,315,4.0,6.0,-999,0.00,,,0.00,,2013-01-26 10:32:00,
2013-01-26 04:43:00,12.0,-99.9,-100.00,NW,315,4.0,6.0,-999,0.00,,,0.00,,2013-01-26 10:43:00,
2013-01-26 04:52:00,12.0,-99.9,-100.00,NW,315,4.0,6.0,-999,0.00,,,0.00,,2013-01-26 10:52:00,
2013-01-26 05:02:00,11.0,-99.9,-100.00,NW,308,4.0,7.0,-999,0.00,,,0.00,,2013-01-26 11:02:00,
2013-01-26 05:12:00,11.0,-99.9,-100.00,NW,308,4.0,7.0,-999,0.00,,,0.00,,2013-01-26 11:12:00,
2013-01-26 05:22:00,11.0,-99.9,-100.00,NW,308,4.0,7.0,-999,0.00,,,0.00,,2013-01-26 11:22:00,
2013-01-26 05:32:00,11.0,-99.9,-100.00,NW,307,2.0,3.0,-999,0.00,,,0.00,,2013-01-26 11:32:00,
2013-01-26 05:42:00,11.0,-99.9,-100.00,NW,307,2.0,3.0,-999,0.00,,,0.00,,2013-01-26 11:42:00,
2013-01-26 05:53:00,11.0,-99.9,-100.00,NW,307,2.0,3.0,-999,0.00,,,0.00,,2013-01-26 11:53:00,
2013-01-26 06:02:00,11.0,-99.9,-100.00,NNW,342,2.0,4.0,-999,0.00,,,0.00,,2013-01-26 12:02:00,
2013-01-26 06:12:00,11.0,-99.9,-100.00,NNW,342,2.0,4.0,-999,0.00,,,0.00,,2013-01-26 12:12:00,
2013-01-26 06:23:00,11.0,-99.9,-100.00,NNW,342,2.0,4.0,-999,0.00,,,0.00,,2013-01-26 12:23:00,
2013-01-26 06:33:00,11.0,-99.9,-100.00,NW,323,2.0,5.0,-999,0.00,,,0.00,,2013-01-26 12:33:00,
2013-01-26 06:42:00,11.0,-99.9,-100.00,NW,323,2.0,5.0,-999,0.00,,,0.00,,2013-01-26 12:42:00,
2013-01-26 06:53:00,11.0,-99.9,-100.00,NW,323,2.0,5.0,-999,0.00,,,0.00,,2013-01-26 12:53:00,
2013-01-26 07:04:00,10.0,-99.9,-100.00,NNW,341,2.0,4.0,-999,0.00,,,0.00,,2013-01-26 13:04:00,
2013-01-26 07:12:00,10.0,-99.9,-100.00,NNW,341,2.0,4.0,-999,0.00,,,0.00,,2013-01-26 13:12:00,
2013-01-26 07:22:00,10.0,-99.9,-100.00,NNW,341,2.0,4.0,-999,0.00,,,0.00,,2013-01-26 13:22:00,
2013-01-26 07:33:00,11.0,-99.9,-100.00,North,11,4.0,6.0,-999,0.00,,,0.00,,2013-01-26 13:33:00,
2013-01-26 07:42:00,11.0,-99.9,-100.00,North,11,4.0,6.0,-999,0.00,,,0.00,,2013-01-26 13:42:00,
2013-01-26 07:53:00,11.0,-99.9,-100.00,North,11,4.0,6.0,-999,0.00,,,0.00,,2013-01-26 13:53:00,
2013-01-26 08:03:00,10.0,-99.9,-100.00,North,8,3.0,4.0,-999,0.00,,,0.00,,2013-01-26 14:03:00,
2013-01-26 08:12:00,10.0,-99.9,-100.00,North,8,3.0,4.0,-999,0.00,,,0.00,,2013-01-26 14:12:00,
2013-01-26 08:22:00,10.0,-99.9,-100.00,North,8,3.0,4.0,-999,0.00,,,0.00,,2013-01-26 14:22:00,
2013-01-26 08:32:00,10.0,-99.9,-100.00,North,355,4.0,5.0,-999,0.00,,,0.00,,2013-01-26 14:32:00,
2013-01-26 08:43:00,10.0,-99.9,-100.00,North,355,4.0,5.0,-999,0.00,,,0.00,,2013-01-26 14:43:00,
2013-01-26 08:53:00,10.0,-99.9,-100.00,North,355,4.0,5.0,-999,0.00,,,0.00,,2013-01-26 14:53:00,
2013-01-26 09:03:00,11.0,-99.9,-100.00,North,11,4.0,6.0,-999,0.00,,,0.00,,2013-01-26 15:03:00,
2013-01-26 09:13:00,11.0,-99.9,-100.00,North,11,4.0,6.0,-999,0.00,,,0.00,,2013-01-26 15:13:00,
2013-01-26 09:22:00,11.0,-99.9,-100.00,North,11,4.0,6.0,-999,0.00,,,0.00,,2013-01-26 15:22:00,
2013-01-26 09:33:00,13.0,-99.9,-100.00,NE,47,4.0,6.0,-999,0.00,,,0.00,,2013-01-26 15:33:00,
2013-01-26 09:43:00,13.0,-99.9,-100.00,NE,47,4.0,6.0,-999,0.00,,,0.00,,2013-01-26 15:43:00,
2013-01-26 09:53:00,13.0,-99.9,-100.00,NE,47,4.0,6.0,-999,0.00,,,0.00,,2013-01-26 15:53:00,
2013-01-26 10:03:00,15.0,-99.9,-100.00,East,82,2.0,3.0,-999,0.00,,,0.00,,2013-01-26 16:03:00,
2013-01-26 10:13:00,15.0,-99.9,-100.00,East,82,2.0,3.0,-999,0.00,,,0.00,,2013-01-26 16:13:00,
2013-01-26 10:22:00,15.0,-99.9,-100.00,East,82,2.0,3.0,-999,0.00,,,0.00,,2013-01-26 16:22:00,
2013-01-26 10:33:00,16.0,-99.9,-100.00,NNE,31,3.0,5.0,-999,0.00,,,0.00,,2013-01-26 16:33:00,
2013-01-26 10:43:00,16.0,-99.9,-100.00,NNE,31,3.0,5.0,-999,0.00,,,0.00,,2013-01-26 16:43:00,
2013-01-26 10:53:00,16.0,-99.9,-100.00,NNE,31,3.0,5.0,-999,0.00,,,0.00,,2013-01-26 16:53:00,
2013-01-26 11:03:00,18.0,-99.9,-100.00,NE,38,4.0,6.0,-999,0.00,,,0.00,,2013-01-26 17:03:00,
2013-01-26 11:13:00,18.0,-99.9,-100.00,NE,38,4.0,6.0,-999,0.00,,,0.00,,2013-01-26 17:13:00,
2013-01-26 11:23:00,18.0,-99.9,-100.00,NE,38,4.0,6.0,-999,0.00,,,0.00,,2013-01-26 17:23:00,
2013-01-26 11:33:00,19.0,-99.9,-100.00,NE,41,5.0,6.0,-999,0.00,,,0.00,,2013-01-26 17:33:00,
2013-01-26 11:42:00,19.0,-99.9,-100.00,NE,41,5.0,6.0,-999,0.00,,,0.00,,2013-01-26 17:42:00,
2013-01-26 11:53:00,19.0,-99.9,-100.00,NE,41,5.0,6.0,-999,0.00,,,0.00,,2013-01-26 17:53:00,
2013-01-26 12:03:00,21.0,-99.9,-100.00,NNE,26,5.0,7.0,-999,0.00,,,0.00,,2013-01-26 18:03:00,
2013-01-26 12:12:00,21.0,-99.9,-100.00,NNE,26,5.0,7.0,-999,0.00,,,0.00,,2013-01-26 18:12:00,
2013-01-26 12:22:00,21.0,-99.9,-100.00,NNE,26,5.0,7.0,-999,0.00,,,0.00,,2013-01-26 18:22:00,
2013-01-26 12:33:00,26.0,-99.9,-100.00,ESE,116,4.0,6.0,-999,0.00,,,0.00,,2013-01-26 18:33:00,
2013-01-26 12:42:00,26.0,-99.9,-100.00,ESE,116,4.0,6.0,-999,0.00,,,0.00,,2013-01-26 18:42:00,
2013-01-26 12:53:00,26.0,-99.9,-100.00,ESE,116,4.0,6.0,-999,0.00,,,0.00,,2013-01-26 18:53:00,
2013-01-26 13:03:00,27.0,-99.9,-100.00,South,179,4.0,7.0,-999,0.00,,,0.00,,2013-01-26 19:03:00,
2013-01-26 13:12:00,27.0,-99.9,-100.00,South,179,4.0,7.0,-999,0.00,,,0.00,,2013-01-26 19:12:00,
2013-01-26 13:23:00,27.0,-99.9,-100.00,South,179,4.0,7.0,-999,0.00,,,0.00,,2013-01-26 19:23:00,
2013-01-26 13:30:00,29.0,-99.9,-100.00,SSE,164,3.0,5.0,-999,0.00,,,0.00,,2013-01-26 19:30:00,
2013-01-26 13:33:00,28.0,-99.9,-100.00,SSE,160,3.0,6.0,-999,0.00,,,0.00,,2013-01-26 19:33:00,
2013-01-26 13:43:00,28.0,-99.9,-100.00,SSE,160,3.0,6.0,-999,0.00,,,0.00,,2013-01-26 19:43:00,
2013-01-26 13:53:00,28.0,-99.9,-100.00,SSE,160,3.0,6.0,-999,0.00,,,0.00,,2013-01-26 19:53:00,
2013-01-26 14:03:00,29.0,-99.9,-100.00,SSE,164,3.0,5.0,-999,0.00,,,0.00,,2013-01-26 20:03:00,
2013-01-26 14:12:00,29.0,-99.9,-100.00,SSE,164,3.0,5.0,-999,0.00,,,0.00,,2013-01-26 20:12:00,
2013-01-26 14:22:00,29.0,-99.9,-100.00,SSE,164,3.0,5.0,-999,0.00,,,0.00,,2013-01-26 20:22:00,
2013-01-26 14:42:00,30.0,-99.9,-100.00,SSE,158,4.0,7.0,-999,0.00,,,0.00,,2013-01-26 20:42:00,
2013-01-26 14:52:00,30.0,-99.9,-100.00,SSE,158,4.0,7.0,-999,0.00,,,0.00,,2013-01-26 20:52:00,
2013-01-26 15:03:00,30.0,-99.9,-100.00,SE,143,6.0,12.0,-999,0.00,,,0.00,,2013-01-26 21:03:00,
2013-01-26 15:12:00,30.0,-99.9,-100.00,SE,143,6.0,12.0,-999,0.00,,,0.00,,2013-01-26 21:12:00,
2013-01-26 15:23:00,30.0,-99.9,-100.00,SE,143,6.0,12.0,-999,0.00,,,0.00,,2013-01-26 21:23:00,
2013-01-26 15:32:00,31.0,-99.9,-100.00,ESE,120,7.0,11.0,-999,0.00,,,0.00,,2013-01-26 21:32:00,
2013-01-26 15:43:00,31.0,-99.9,-100.00,ESE,120,7.0,11.0,-999,0.00,,,0.00,,2013-01-26 21:43:00,
2013-01-26 15:52:00,31.0,-99.9,-100.00,ESE,120,7.0,11.0,-999,0.00,,,0.00,,2013-01-26 21:52:00,
2013-01-26 16:02:00,32.0,-99.9,-100.00,ESE,117,6.0,11.0,-999,0.00,,,0.00,,2013-01-26 22:02:00,
2013-01-26 16:12:00,32.0,-99.9,-100.00,ESE,117,6.0,11.0,-999,0.00,,,0.00,,2013-01-26 22:12:00,
2013-01-26 16:22:00,32.0,-99.9,-100.00,ESE,117,6.0,11.0,-999,0.00,,,0.00,,2013-01-26 22:22:00,
2013-01-26 16:30:00,31.0,-99.9,-100.00,SE,146,8.0,9.0,-999,0.00,,,0.00,,2013-01-26 22:30:00,
2013-01-26 16:32:00,32.0,-99.9,-100.00,SE,134,7.0,11.0,-999,0.00,,,0.00,,2013-01-26 22:32:00,
2013-01-26 16:42:00,32.0,-99.9,-100.00,SE,134,7.0,11.0,-999,0.00,,,0.00,,2013-01-26 22:42:00,
2013-01-26 16:52:00,32.0,-99.9,-100.00,SE,134,7.0,11.0,-999,0.00,,,0.00,,2013-01-26 22:52:00,
2013-01-26 17:02:00,31.0,-99.9,-100.00,SE,146,8.0,9.0,-999,0.00,,,0.00,,2013-01-26 23:02:00,
2013-01-26 17:12:00,31.0,-99.9,-100.00,SE,146,8.0,9.0,-999,0.00,,,0.00,,2013-01-26 23:12:00,
2013-01-26 17:22:00,31.0,-99.9,-100.00,SE,146,8.0,9.0,-999,0.00,,,0.00,,2013-01-26 23:22:00,
2013-01-26 18:02:00,30.0,-99.9,-100.00,ESE,112,6.0,7.0,-999,0.00,,,0.00,,2013-01-27 00:02:00,
2013-01-26 18:12:00,30.0,-99.9,-100.00,ESE,112,6.0,7.0,-999,0.00,,,0.00,,2013-01-27 00:12:00,
2013-01-26 18:22:00,30.0,-99.9,-100.00,ESE,112,6.0,7.0,-999,0.00,,,0.00,,2013-01-27 00:22:00,
2013-01-26 18:32:00,30.0,-99.9,-100.00,ESE,122,4.0,5.0,-999,0.00,,,0.00,,2013-01-27 00:32:00,
2013-01-26 18:42:00,30.0,-99.9,-100.00,ESE,122,4.0,5.0,-999,0.00,,,0.00,,2013-01-27 00:42:00,
2013-01-26 18:52:00,30.0,-99.9,-100.00,ESE,122,4.0,5.0,-999,0.00,,,0.00,,2013-01-27 00:52:00,
2013-01-26 19:02:00,29.0,-99.9,-100.00,ESE,104,4.0,7.0,-999,0.00,,,0.00,,2013-01-27 01:02:00,
2013-01-26 19:11:00,29.0,-99.9,-100.00,ESE,104,4.0,7.0,-999,0.00,,,0.00,,2013-01-27 01:11:00,
2013-01-26 19:22:00,29.0,-99.9,-100.00,ESE,104,4.0,7.0,-999,0.00,,,0.00,,2013-01-27 01:22:00,
2013-01-26 19:32:00,29.0,-99.9,-100.00,ESE,115,6.0,8.0,-999,0.00,,,0.00,,2013-01-27 01:32:00,
2013-01-26 19:42:00,29.0,-99.9,-100.00,ESE,115,6.0,8.0,-999,0.00,,,0.00,,2013-01-27 01:42:00,
2013-01-26 19:52:00,29.0,-99.9,-100.00,ESE,115,6.0,8.0,-999,0.00,,,0.00,,2013-01-27 01:52:00,
2013-01-26 20:02:00,29.0,-99.9,-100.00,ESE,110,5.0,8.0,-999,0.00,,,0.00,,2013-01-27 02:02:00,
2013-01-26 20:12:00,29.0,-99.9,-100.00,ESE,110,5.0,8.0,-999,0.00,,,0.00,,2013-01-27 02:12:00,
2013-01-26 20:22:00,29.0,-99.9,-100.00,ESE,110,5.0,8.0,-999,0.00,,,0.00,,2013-01-27 02:22:00,
2013-01-26 20:30:00,29.0,-99.9,-100.00,ESE,110,6.0,9.0,-999,0.00,,,0.00,,2013-01-27 02:30:00,
2013-01-26 20:32:00,29.0,-99.9,-100.00,ESE,102,5.0,6.0,-999,0.00,,,0.00,,2013-01-27 02:32:00,
2013-01-26 20:42:00,29.0,-99.9,-100.00,ESE,102,5.0,6.0,-999,0.00,,,0.00,,2013-01-27 02:42:00,
2013-01-26 20:52:00,29.0,-99.9,-100.00,ESE,102,5.0,6.0,-999,0.00,,,0.00,,2013-01-27 02:52:00,
2013-01-26 21:02:00,29.0,-99.9,-100.00,ESE,110,6.0,9.0,-999,0.00,,,0.00,,2013-01-27 03:02:00,
2013-01-26 21:12:00,29.0,-99.9,-100.00,ESE,110,6.0,9.0,-999,0.00,,,0.00,,2013-01-27 03:12:00,
2013-01-26 21:22:00,29.0,-99.9,-100.00,ESE,110,6.0,9.0,-999,0.00,,,0.00,,2013-01-27 03:22:00,
2013-01-26 21:42:00,29.0,-99.9,-100.00,ESE,119,8.0,11.0,-999,0.00,,,0.00,,2013-01-27 03:42:00,
2013-01-26 21:52:00,29.0,-99.9,-100.00,ESE,119,8.0,11.0,-999,0.00,,,0.00,,2013-01-27 03:52:00,
2013-01-26 22:02:00,29.0,-99.9,-100.00,SE,125,8.0,11.0,-999,0.00,,,0.00,,2013-01-27 04:02:00,
2013-01-26 22:12:00,29.0,-99.9,-100.00,SE,125,8.0,11.0,-999,0.00,,,0.00,,2013-01-27 04:12:00,
2013-01-26 22:22:00,29.0,-99.9,-100.00,SE,125,8.0,11.0,-999,0.00,,,0.00,,2013-01-27 04:22:00,
2013-01-26 22:32:00,29.0,-99.9,-100.00,SE,133,8.0,10.0,-999,0.00,,,0.00,,2013-01-27 04:32:00,
2013-01-26 22:42:00,29.0,-99.9,-100.00,SE,133,8.0,10.0,-999,0.00,,,0.00,,2013-01-27 04:42:00,
2013-01-26 22:52:00,29.0,-99.9,-100.00,SE,133,8.0,10.0,-999,0.00,,,0.00,,2013-01-27 04:52:00,
2013-01-26 23:04:00,29.0,-99.9,-100.00,SE,124,5.0,7.0,-999,0.00,,,0.00,,2013-01-27 05:04:00,
2013-01-26 23:12:00,29.0,-99.9,-100.00,SE,124,5.0,7.0,-999,0.00,,,0.00,,2013-01-27 05:12:00,
2013-01-26 23:22:00,29.0,-99.9,-100.00,SE,124,5.0,7.0,-999,0.00,,,0.00,,2013-01-27 05:22:00,
2013-01-26 23:32:00,30.0,-99.9,-100.00,SE,131,7.0,10.0,-999,0.00,,,0.00,,2013-01-27 05:32:00,
2013-01-26 23:42:00,30.0,-99.9,-100.00,SE,131,7.0,10.0,-999,0.00,,,0.00,,2013-01-27 05:42:00,
2013-01-26 23:52:00,30.0,-99.9,-100.00,SE,131,7.0,10.0,-999,0.00,,,0.00,,2013-01-27 05:52:00,